Home > Weather > Pretoria > Past weeks

Flag for South Africa Weather for the Past 2 Weeks in Pretoria, South Africa

Now
63 °F

Mild.


Feels Like: 63 °F
Forecast: 42 / 74 °F
Wind: 7 mph from Northwest

Location: Waterkloof Lmb

Current Time: May 6, 2016 at 10:01:26 AM

Latest Report: May 6, 2016 at 9:00 AM


Visibility: N/A

Pressure: 30.36 "Hg (25.93 "Hg at 1338m altitude)

Humidity: 45%

Dew Point: 41 °F

Location of PretoriaLocation

Historic Weather in Pretoria — Graph

°F

Pretoria Temperature Yesterday

Maximum temperature yesterday: 73 °F (at 3:00 PM)
Minimum temperature yesterday: 46 °F (at 7:00 AM)
Average temperature yesterday: 60 °F

High & Low Weather Summary for the Past Weeks

 TemperatureHumidityPressure
High84 °F (Apr 26, 2:00 PM)94% (Apr 21, 10:00 PM)30.42 "Hg (Apr 21, 10:00 PM)
Low45 °F (Apr 22, 6:00 AM)18% (Apr 28, 4:00 PM)30.01 "Hg (Apr 29, 3:00 PM)
Average64 °F56%30.24 "Hg
* Reported Apr 21 9:00 AM — May 6 9:00 AM, Pretoria, Weather by CustomWeather, © 2016

Note: Actual official high and low records may vary slightly from our data, if they occured in-between our weather recording intervals... More about our weather records

Advertising

Pretoria Weather History for the Previous 24 Hours

Scroll right to see more
 ConditionsComfort  
Time TempWeatherWind HumidityBarometerVisibility
9:00 AM
Fri, May 6
63 °FMild.7 mph45%30.36 "HgN/A
8:00 AM59 °FRefreshingly cool.No wind59%30.36 "HgN/A
7:00 AM48 °FCool.No wind76%30.33 "HgN/A
6:00 AM46 °FCool.2 mph82%30.30 "HgN/A
5:00 AM46 °FCool.1 mph82%30.30 "HgN/A
4:00 AM48 °FCool.No wind71%30.30 "HgN/A
3:00 AM48 °FCool.2 mph76%30.30 "HgN/A
2:00 AM48 °FCool.2 mph76%30.33 "HgN/A
1:00 AM50 °FCool.2 mph76%30.33 "HgN/A
12:00 AM50 °FCool.3 mph71%30.33 "HgN/A
10:00 PM
Thu, May 5
54 °FCool.No wind67%30.36 "HgN/A
9:00 PM59 °FRefreshingly cool.2 mph51%30.36 "HgN/A
8:00 PM59 °FRefreshingly cool.3 mph55%30.36 "HgN/A
7:00 PM61 °FRefreshingly cool.6 mph52%30.33 "HgN/A
6:00 PM64 °FMild.5 mph43%30.33 "HgN/A
5:00 PM72 °FMild.5 mph33%30.30 "HgN/A
4:00 PM73 °FMild.3 mph31%30.30 "HgN/A
3:00 PM73 °FMild.7 mph29%30.33 "HgN/A
2:00 PM72 °FMild.6 mph33%30.33 "HgN/A
1:00 PM70 °FMild.6 mph35%30.36 "HgN/A
12:00 PM66 °FMild.8 mph43%30.39 "HgN/A
11:00 AM64 °FMild.3 mph46%30.39 "HgN/A
10:00 AM63 °FMild.5 mph49%30.42 "HgN/A
Weather by CustomWeather, © 2016

See weather overviewHow to use our weather pages